Location: Wellington
(41.3000°S, 174.7830°E)
Time: 21:20:12
(UTC+13:00)

NOSS 2-1 (E) - Pass Details

Date: 24 January 2019
Orbit: 462 x 1742 km, 63.3° (Epoch: 04 October)

Event Time Altitude Azimuth Distance (km) Brightness Sun altitude
Rises 22:33:19 0° 215° (SW) 4,481 9.7 -16.6°
Reaches altitude 10° 22:36:39 10° 213° (SSW) 3,308 8.5 -17.0°
Maximum altitude 22:44:29 71° 129° (SE) 1,055 4.6 -18.0°
Enters shadow 22:47:27 31° 51° (NE) 1,511 4.9 -18.4°
